Location: Buchdorf
(48.7842°N, 10.8275°E)
Time: 18:20:37
(UTC+00:00)

Cosmos 1455 - Pass Details

Date: 09 April 2020
Orbit: 498 x 523 km, 82.5° (Epoch: 26 May)

Event Time Altitude Azimuth Distance (km) Brightness Sun altitude
Exits shadow 21:31:09 26° 295° (WNW) 1,038 4.2 -28.6°
Drops below altitude 10° 21:34:13 10° 348° (NNW) 1,761 5.7 -28.8°
Sets 21:36:37 0° 1° (N) 2,659 6.7 -29.0°
